This is the latest recevied weather packets stored in our database for station/object NB9X. If no packets are shown the sender has not sent any weather packets the latest 10 day(s).
| Time | Temp. | Humidity | Pressure | Rain* | Wind** | Luminosity | Snow |
|---|---|---|---|---|---|---|---|
| 1777654999 | 28.89° C | 100% | 1012 hPa | 0 mm | - | - | - |
| 1777654699 | 30° C | 100% | 1012.1 hPa | 0 mm | - | - | - |
| 1777654399 | 30.56° C | 100% | 1012.3 hPa | 0 mm | - | - | - |
| 1777654099 | 31.11° C | 100% | 1012.3 hPa | 0 mm | - | - | - |
| 1777653799 | 30.56° C | 100% | 1012.3 hPa | 0 mm | - | - | - |
| 1777653500 | 30.56° C | 100% | 1012.1 hPa | 0 mm | - | - | - |
| 1777653199 | 30.56° C | 100% | 1012.2 hPa | 0 mm | - | - | - |
| 1777652899 | 30.56° C | 100% | 1012.2 hPa | 0 mm | - | - | - |
| 1777652599 | 30° C | 100% | 1012.2 hPa | 0 mm | - | - | - |
| 1777652299 | 28.89° C | 100% | 1012.2 hPa | 0 mm | - | - | - |
| 1777651999 | 29.44° C | 100% | 1012.2 hPa | 0 mm | - | - | - |
| 1777651699 | 30° C | 100% | 1012.2 hPa | 0 mm | - | - | - |
| 1777651400 | 30.56° C | 100% | 1012.2 hPa | 0 mm | - | - | - |
| 1777651099 | 30° C | 100% | 1012.2 hPa | 0 mm | - | - | - |
| 1777650799 | 30° C | 100% | 1012.2 hPa | 0 mm | - | - | - |
| 1777650774 | 29.44° C | 100% | 1012.3 hPa | 0 mm | - | - | - |
| 1777650499 | 29.44° C | 100% | 1012.2 hPa | 0 mm | - | - | - |
| 1777650199 | 29.44° C | 100% | 1012.2 hPa | 0 mm | - | - | - |
| 1777649899 | 29.44° C | 100% | 1012.3 hPa | 0 mm | - | - | - |
| 1777649599 | 29.44° C | 100% | 1012.4 hPa | 0 mm | - | - | - |
| 1777649299 | 28.89° C | 100% | 1012.4 hPa | 0 mm | - | - | - |
| 1777648999 | 29.44° C | 100% | 1012.4 hPa | 0 mm | - | - | - |
| 1777648700 | 28.89° C | 100% | 1012.4 hPa | 0 mm | - | - | - |
| 1777648399 | 29.44° C | 100% | 1012.2 hPa | 0 mm | - | - | - |
| 1777648099 | 28.89° C | 100% | 1012.2 hPa | 0 mm | - | - | - |
* Rain latest hour (hover to see other rain measurements)
** Current wind speed in m/s (hover to see current wind gust speed)